Retour au catalogue

CZ-6A DEB

ActifSSO
NORAD 54318·DEBRIS·🇨🇳 China

Lancé Nov 11, 2022 depuis Taiyuan Satellite Launch Center

Loading…

Prochains Passages (prochaines 24 heures)

TLE

FraisSource: Space-Track

Époque: Sep 14, 2026, 22:48 UTC

1 54318U 22151BM  26257.95026944  .00000713  00000-0  40756-3 0  9999
2 54318  98.8495 256.9333 0052799  85.4986 275.2215 14.12042155197083

Suivez CZ-6A DEB en temps réel avec AllMySat

Download on the App Store